Time,TemperatureF,DewpointF,PressureIn,WindDirection,WindDirectionDegrees,WindSpeedMPH,WindSpeedGustMPH,Humidity,HourlyPrecipIn,Conditions,Clouds,dailyrainin,SoftwareType,DateUTC
2013-02-10 00:00:00,32.1,26.9,0.00,East,90,5.0,16.0,81,0.00,CLR,,0.00,WeatherDisplay:10.37,2013-02-10 09:00:00,
2013-02-10 00:15:00,31.9,26.4,0.00,East,86,7.0,12.0,80,0.00,CLR,,0.00,WeatherDisplay:10.37,2013-02-10 09:15:00,
2013-02-10 00:30:00,31.4,26.2,0.00,East,84,6.0,13.0,81,0.00,CLR,,0.00,WeatherDisplay:10.37,2013-02-10 09:30:00,
2013-02-10 00:45:00,31.4,26.6,0.00,East,91,7.0,14.0,82,0.00,CLR,,0.00,WeatherDisplay:10.37,2013-02-10 09:45:00,
2013-02-10 01:00:00,31.4,26.6,0.00,East,86,6.0,12.0,82,0.00,CLR,,0.00,WeatherDisplay:10.37,2013-02-10 10:00:00,
2013-02-10 01:15:00,31.8,26.9,0.00,East,86,6.0,8.0,82,0.00,CLR,,0.00,WeatherDisplay:10.37,2013-02-10 10:15:00,
2013-02-10 01:30:00,31.6,26.7,0.00,East,81,6.0,12.0,82,0.00,CLR,,0.00,WeatherDisplay:10.37,2013-02-10 10:30:00,
2013-02-10 01:45:00,32.0,27.4,0.00,East,87,5.0,10.0,83,0.00,CLR,,0.00,WeatherDisplay:10.37,2013-02-10 10:45:00,
2013-02-10 02:00:00,31.7,27.1,0.00,East,88,5.0,13.0,83,0.00,CLR,,0.00,WeatherDisplay:10.37,2013-02-10 11:00:00,
2013-02-10 02:15:00,31.5,26.9,0.00,East,79,5.0,9.0,83,0.00,CLR,,0.00,WeatherDisplay:10.37,2013-02-10 11:15:00,
2013-02-10 02:45:00,30.9,26.6,0.00,East,84,2.0,8.0,84,0.00,CLR,,0.00,WeatherDisplay:10.37,2013-02-10 11:45:00,
2013-02-10 03:00:00,30.6,26.3,0.00,ENE,68,5.0,8.0,84,0.00,CLR,,0.00,WeatherDisplay:10.37,2013-02-10 12:00:00,
2013-02-10 03:15:00,30.0,26.0,0.00,ENE,72,2.0,9.0,85,0.00,CLR,,0.00,WeatherDisplay:10.37,2013-02-10 12:15:00,
2013-02-10 03:30:00,30.1,26.1,0.00,ENE,78,5.0,9.0,85,0.00,CLR,,0.00,WeatherDisplay:10.37,2013-02-10 12:30:00,
2013-02-10 03:45:00,30.0,26.0,0.00,ENE,74,6.0,9.0,85,0.00,CLR,,0.00,WeatherDisplay:10.37,2013-02-10 12:45:00,
2013-02-10 04:00:00,30.1,26.1,0.00,ENE,75,3.0,9.0,85,0.00,CLR,,0.00,WeatherDisplay:10.37,2013-02-10 13:00:00,
2013-02-10 04:15:00,30.3,26.6,0.00,ENE,72,6.0,9.0,86,0.00,CLR,,0.00,WeatherDisplay:10.37,2013-02-10 13:15:00,
2013-02-10 04:30:00,30.6,26.9,0.00,ENE,73,5.0,9.0,86,0.00,CLR,,0.00,WeatherDisplay:10.37,2013-02-10 13:30:00,
2013-02-10 04:45:00,30.9,26.9,0.00,ENE,74,6.0,9.0,85,0.00,CLR,,0.00,WeatherDisplay:10.37,2013-02-10 13:45:00,
2013-02-10 05:00:00,31.4,27.4,0.00,ENE,69,6.0,9.0,85,0.00,CLR,,0.00,WeatherDisplay:10.37,2013-02-10 14:00:00,
2013-02-10 05:15:00,31.7,27.7,0.00,ENE,76,6.0,12.0,85,0.00,CLR,,0.00,WeatherDisplay:10.37,2013-02-10 14:15:00,
2013-02-10 05:30:00,32.1,28.1,0.00,ENE,74,6.0,13.0,85,0.00,CLR,,0.00,WeatherDisplay:10.37,2013-02-10 14:30:00,
2013-02-10 05:45:00,32.2,27.9,0.00,ENE,75,6.0,11.0,84,0.00,CLR,,0.00,WeatherDisplay:10.37,2013-02-10 14:45:00,
2013-02-10 06:00:00,32.5,28.2,0.00,ENE,74,6.0,12.0,84,0.00,CLR,,0.00,WeatherDisplay:10.37,2013-02-10 15:00:00,
2013-02-10 06:15:00,32.9,28.6,0.00,East,80,6.0,12.0,84,0.00,CLR,,0.00,WeatherDisplay:10.37,2013-02-10 15:15:00,
2013-02-10 06:30:00,33.1,28.8,0.00,ENE,73,5.0,9.0,84,0.00,CLR,,0.00,WeatherDisplay:10.37,2013-02-10 15:30:00,
2013-02-10 06:45:00,32.9,28.3,0.00,East,82,5.0,9.0,83,0.00,CLR,,0.00,WeatherDisplay:10.37,2013-02-10 15:45:00,
2013-02-10 07:00:00,32.9,28.6,0.00,ENE,78,3.0,9.0,84,0.00,CLR,,0.00,WeatherDisplay:10.37,2013-02-10 16:00:00,
2013-02-10 07:15:00,32.7,28.4,0.00,East,81,3.0,7.0,84,0.00,CLR,,0.00,WeatherDisplay:10.37,2013-02-10 16:15:00,
2013-02-10 07:30:00,32.8,28.5,0.00,ENE,73,3.0,7.0,84,0.00,CLR,,0.00,WeatherDisplay:10.37,2013-02-10 16:30:00,
2013-02-10 07:45:00,32.9,28.6,0.00,East,79,3.0,7.0,84,0.00,CLR,,0.00,WeatherDisplay:10.37,2013-02-10 16:45:00,
2013-02-10 08:00:00,33.1,28.8,0.00,ENE,73,2.0,8.0,84,0.00,CLR,,0.00,WeatherDisplay:10.37,2013-02-10 17:00:00,
2013-02-10 08:15:00,33.6,29.8,0.00,ENE,74,6.0,9.0,86,0.00,CLR,,0.00,WeatherDisplay:10.37,2013-02-10 17:15:00,
2013-02-10 08:30:00,33.8,30.1,0.00,ENE,78,3.0,8.0,86,0.00,CLR,,0.00,WeatherDisplay:10.37,2013-02-10 17:30:00,
2013-02-10 08:45:00,33.7,29.7,0.00,ENE,76,2.0,7.0,85,0.00,CLR,,0.00,WeatherDisplay:10.37,2013-02-10 17:45:00,
2013-02-10 09:00:00,33.9,29.9,0.00,ENE,77,2.0,6.0,85,0.00,CLR,,0.00,WeatherDisplay:10.37,2013-02-10 18:00:00,
2013-02-10 09:15:00,34.0,30.3,0.00,East,89,3.0,7.0,86,0.00,CLR,,0.00,WeatherDisplay:10.37,2013-02-10 18:15:00,
2013-02-10 09:30:00,34.0,30.2,0.00,East,98,2.0,7.0,86,0.00,CLR,,0.00,WeatherDisplay:10.37,2013-02-10 18:30:00,
2013-02-10 09:45:00,34.2,30.7,0.00,East,89,2.0,5.0,87,0.00,CLR,,0.00,WeatherDisplay:10.37,2013-02-10 18:45:00,
2013-02-10 10:00:00,34.4,31.2,0.00,East,83,2.0,5.0,88,0.00,CLR,,0.00,WeatherDisplay:10.37,2013-02-10 19:00:00,
2013-02-10 10:15:00,34.6,31.7,0.00,East,81,2.0,5.0,89,0.00,CLR,,0.00,WeatherDisplay:10.37,2013-02-10 19:15:00,
2013-02-10 10:30:00,34.9,32.0,0.00,ESE,122,0.0,5.0,89,0.00,CLR,,0.00,WeatherDisplay:10.37,2013-02-10 19:30:00,
2013-02-10 10:45:00,35.4,31.9,0.00,East,81,3.0,5.0,87,0.00,CLR,,0.00,WeatherDisplay:10.37,2013-02-10 19:45:00,
2013-02-10 11:00:00,35.6,32.4,0.00,East,91,1.0,6.0,88,0.00,CLR,,0.00,WeatherDisplay:10.37,2013-02-10 20:00:00,
2013-02-10 11:15:00,35.9,32.4,0.00,East,82,3.0,6.0,87,0.00,CLR,,0.00,WeatherDisplay:10.37,2013-02-10 20:15:00,
2013-02-10 11:30:00,35.9,32.1,0.00,East,87,2.0,7.0,86,0.00,CLR,,0.00,WeatherDisplay:10.37,2013-02-10 20:30:00,
2013-02-10 11:45:00,35.9,32.1,0.00,East,89,2.0,7.0,86,0.00,CLR,,0.00,WeatherDisplay:10.37,2013-02-10 20:45:00,
2013-02-10 12:00:00,35.9,32.1,0.00,ENE,78,3.0,8.0,86,0.00,CLR,,0.00,WeatherDisplay:10.37,2013-02-10 21:00:00,
2013-02-10 12:15:00,35.7,31.9,0.00,ENE,76,2.0,6.0,86,0.00,CLR,,0.00,WeatherDisplay:10.37,2013-02-10 21:15:00,
2013-02-10 12:30:00,35.6,31.9,0.00,ENE,61,0.0,3.0,86,0.00,CLR,,0.00,WeatherDisplay:10.37,2013-02-10 21:30:00,
2013-02-10 12:45:00,35.7,31.9,0.00,East,93,1.0,7.0,86,0.00,CLR,,0.00,WeatherDisplay:10.37,2013-02-10 21:45:00,
2013-02-10 13:00:00,35.8,32.0,0.00,East,82,3.0,8.0,86,0.00,CLR,,0.00,WeatherDisplay:10.37,2013-02-10 22:00:00,
2013-02-10 13:15:00,36.0,32.2,0.00,East,100,2.0,5.0,86,0.00,CLR,,0.00,WeatherDisplay:10.37,2013-02-10 22:15:00,
2013-02-10 13:30:00,35.4,31.1,0.00,ESE,102,1.0,8.0,84,0.00,CLR,,0.00,WeatherDisplay:10.37,2013-02-10 22:30:00,
2013-02-10 13:45:00,34.2,30.2,0.00,East,100,0.0,6.0,85,0.00,CLR,,0.00,WeatherDisplay:10.37,2013-02-10 22:45:00,
2013-02-10 14:00:00,33.9,29.9,0.00,ESE,121,0.0,5.0,85,0.00,CLR,,0.00,WeatherDisplay:10.37,2013-02-10 23:00:00,
2013-02-10 14:15:00,32.5,28.2,0.00,ESE,121,0.0,0.0,84,0.00,CLR,,0.00,WeatherDisplay:10.37,2013-02-10 23:15:00,
2013-02-10 14:30:00,27.9,22.5,0.00,WSW,248,0.0,8.0,80,0.00,CLR,,0.00,WeatherDisplay:10.37,2013-02-10 23:30:00,
2013-02-10 14:45:00,22.8,17.8,0.00,WSW,254,1.0,9.0,81,0.00,CLR,,0.00,WeatherDisplay:10.37,2013-02-10 23:45:00,
2013-02-10 15:00:00,21.2,17.1,0.00,SW,218,3.0,8.0,84,0.00,CLR,,0.00,WeatherDisplay:10.37,2013-02-11 00:00:00,
2013-02-10 15:15:00,21.2,17.4,0.00,SSW,204,0.0,6.0,85,0.00,CLR,,0.00,WeatherDisplay:10.37,2013-02-11 00:15:00,
2013-02-10 15:30:00,20.1,16.3,0.00,SSW,201,2.0,6.0,85,0.00,CLR,,0.00,WeatherDisplay:10.37,2013-02-11 00:30:00,
2013-02-10 15:45:00,16.9,12.9,0.00,South,188,7.0,12.0,84,0.00,CLR,,0.00,WeatherDisplay:10.37,2013-02-11 00:45:00,
2013-02-10 16:00:00,15.1,11.4,0.00,NW,316,1.0,9.0,85,0.00,CLR,,0.00,WeatherDisplay:10.37,2013-02-11 01:00:00,
2013-02-10 16:15:00,15.9,12.5,0.00,North,6,2.0,9.0,86,0.00,CLR,,0.00,WeatherDisplay:10.37,2013-02-11 01:15:00,
2013-02-10 16:30:00,14.0,10.3,0.00,SSW,195,1.0,12.0,85,0.00,CLR,,0.00,WeatherDisplay:10.37,2013-02-11 01:30:00,
2013-02-10 16:45:00,12.7,9.3,0.00,SW,214,3.0,10.0,86,0.00,CLR,,0.00,WeatherDisplay:10.37,2013-02-11 01:45:00,
2013-02-10 17:00:00,12.7,9.3,0.00,East,84,1.0,8.0,86,0.00,CLR,,0.00,WeatherDisplay:10.37,2013-02-11 02:00:00,
2013-02-10 17:15:00,12.9,9.5,0.00,SSE,160,2.0,6.0,86,0.00,CLR,,0.00,WeatherDisplay:10.37,2013-02-11 02:15:00,
2013-02-10 17:30:00,13.1,9.9,0.00,ESE,114,2.0,5.0,87,0.00,CLR,,0.00,WeatherDisplay:10.37,2013-02-11 02:30:00,
2013-02-10 17:45:00,13.1,10.0,0.00,ESE,112,2.0,6.0,87,0.00,CLR,,0.00,WeatherDisplay:10.37,2013-02-11 02:45:00,
2013-02-10 18:00:00,12.4,9.3,0.00,East,83,5.0,10.0,87,0.00,CLR,,0.00,WeatherDisplay:10.37,2013-02-11 03:00:00,
2013-02-10 18:15:00,11.9,8.8,0.00,ENE,74,6.0,9.0,87,0.00,CLR,,0.00,WeatherDisplay:10.37,2013-02-11 03:15:00,
2013-02-10 18:30:00,11.7,8.8,0.00,East,81,6.0,7.0,88,0.00,CLR,,0.00,WeatherDisplay:10.37,2013-02-11 03:30:00,
2013-02-10 18:45:00,11.7,8.8,0.00,East,80,3.0,7.0,88,0.00,CLR,,0.00,WeatherDisplay:10.37,2013-02-11 03:45:00,
2013-02-10 19:00:00,11.9,9.0,0.00,ESE,102,2.0,5.0,88,0.00,CLR,,0.00,WeatherDisplay:10.37,2013-02-11 04:00:00,
2013-02-10 19:15:00,12.2,9.6,0.00,East,95,3.0,5.0,89,0.00,CLR,,0.00,WeatherDisplay:10.37,2013-02-11 04:15:00,
2013-02-10 19:30:00,12.6,10.0,0.00,East,80,3.0,5.0,89,0.00,CLR,,0.00,WeatherDisplay:10.37,2013-02-11 04:30:00,
2013-02-10 19:45:00,12.8,10.2,0.00,ENE,75,2.0,5.0,89,0.00,CLR,,0.00,WeatherDisplay:10.37,2013-02-11 04:45:00,
2013-02-10 20:00:00,12.9,10.3,0.00,East,100,3.0,4.0,89,0.00,CLR,,0.00,WeatherDisplay:10.37,2013-02-11 05:00:00,
2013-02-10 20:15:00,12.8,9.9,0.00,East,81,3.0,4.0,88,0.00,CLR,,0.00,WeatherDisplay:10.37,2013-02-11 05:15:00,
2013-02-10 20:30:00,12.5,9.6,0.00,East,81,5.0,7.0,88,0.00,CLR,,0.00,WeatherDisplay:10.37,2013-02-11 05:30:00,
2013-02-10 20:45:00,12.1,9.2,0.00,East,79,6.0,8.0,88,0.00,CLR,,0.00,WeatherDisplay:10.37,2013-02-11 05:45:00,
2013-02-10 21:00:00,11.7,9.1,0.00,East,87,3.0,8.0,89,0.00,CLR,,0.00,WeatherDisplay:10.37,2013-02-11 06:00:00,
2013-02-10 21:15:00,11.4,8.8,0.00,East,82,6.0,8.0,89,0.00,CLR,,0.00,WeatherDisplay:10.37,2013-02-11 06:15:00,
2013-02-10 21:30:00,11.0,8.4,0.00,East,81,6.0,9.0,89,0.00,CLR,,0.00,WeatherDisplay:10.37,2013-02-11 06:30:00,
2013-02-10 21:45:00,10.8,8.2,0.00,East,86,6.0,8.0,89,0.00,CLR,,0.00,WeatherDisplay:10.37,2013-02-11 06:45:00,
2013-02-10 22:00:00,11.0,8.6,0.00,East,81,6.0,8.0,90,0.00,CLR,,0.00,WeatherDisplay:10.37,2013-02-11 07:00:00,
2013-02-10 22:15:00,10.9,8.5,0.00,East,85,7.0,9.0,90,0.00,CLR,,0.00,WeatherDisplay:10.37,2013-02-11 07:15:00,
2013-02-10 22:30:00,11.1,8.7,0.00,East,87,6.0,9.0,90,0.00,CLR,,0.00,WeatherDisplay:10.37,2013-02-11 07:30:00,
2013-02-10 22:45:00,11.5,9.2,0.00,East,85,6.0,9.0,90,0.00,CLR,,0.00,WeatherDisplay:10.37,2013-02-11 07:45:00,
2013-02-10 23:00:00,12.1,9.9,0.00,East,90,6.0,9.0,91,0.00,CLR,,0.00,WeatherDisplay:10.37,2013-02-11 08:00:00,
2013-02-10 23:15:00,12.7,10.6,0.00,East,81,2.0,8.0,91,0.00,CLR,,0.00,WeatherDisplay:10.37,2013-02-11 08:15:00,
2013-02-10 23:30:00,13.4,11.3,0.00,ENE,73,3.0,6.0,91,0.00,CLR,,0.00,WeatherDisplay:10.37,2013-02-11 08:30:00,
2013-02-10 23:45:00,14.0,11.9,0.00,East,87,5.0,6.0,91,0.00,CLR,,0.00,WeatherDisplay:10.37,2013-02-11 08:45:00,